User: anonymous
Location: Unspecified
(0.0000°N, 0.0000°E)
Time: 22:30:05
(UTC+02:00)
Language:

Cosmos 1898 Rocket - Orbit

View from above orbital plane
View from above orbital plane
View from above satellite
View from above satellite

Ground track
Ground track

The orbit data is extracted from the following two-line orbital elements,

1 18586U 87098B   14208.25625124  .00000101  00000-0  43304-4 0   836
2 18586 074.0066 079.3386 0020751 023.0678 116.8357 14.36435286395729
Epoch (UTC): 27 July 2014 06:09:00
Eccentricity: 0.0020751
inclination: 74.0066°
perigee height: 755 km
apogee height: 785 km
right ascension of ascending node: 79.3386°
argument of perigee: 23.0678°
revolutions per day: 14.36435286
mean anomaly at epoch: 116.8357°
orbit number at epoch: 39572

The dashed part of the orbit path shows where the satellite is in the earth's shadow,  

DLR